Volver al catálogo

USA 255

ActivoMilitarGEO
NORAD 40101·PAYLOAD·🇺🇸 United States

Lanzado Jul 28, 2014 desde Cape Canaveral Space Force Station

Loading…

TLE

ActualizadoSource: Space-Track

Época: Sep 14, 2026, 15:29 UTC

1 40101U 14043C   26257.64552377 -.00000235  00000-0  00000-0 0  9990
2 40101   9.4451  56.3402 0012588 336.2925   1.4822  0.98729626 26188

Sigue USA 255 en tiempo real con AllMySat

Download on the App Store